Starlink 3360

operational
NORAD ID: 51149 Int'l Des: 2022-005 Owner: SPXS Country: US Constellation: starlink
LEOCIRCULAR

About Starlink 3360

Description loading...

Live Position

Loading 3D Globe...

Upcoming Passes

Altitude History

Altitude vs Time

uPlot chart will show altitude changes over time

Two-Line Element Set

1 51149U 22005AX 26061.17252997 .00000943 00000-0 77326-4 0 9991
2 51149 53.2192 342.6838 0001465 84.4811 275.6348 15.08845014227462
Epoch: Mar 2, 2026 • Age: 45 hours

Current Status

Altitude 546.4 km
Velocity 7.59 km/s
Sub-Earth Point -22.06°S, 58.95°E
Launch Date Jan 19, 2022
Age 4.1 years
Type internet

Technical Details

Classification Payload
Mass 297.00 kg
Dry Mass 275.00 kg
Total Mass 297.00 kg
Length 0.20 m
Diameter 2.80 m
Span 9.00 m
Shape Box + pan
Manufacturer SPXS
Bus Type Starlink
Phase Status In Orbit
Owner/State SPXS/US

Large Constellations

Loading constellations...